Flag for U.S.A. Weather past 2 weeks in Fremont, California, U.S.A.

Now
84 °F

Sunny.


Feels Like: 81 °F
Forecast: 55 / 82 °F
Wind: 8 mph from Northwest

Location: Moffett Field

Current Time: Oct 1, 2014 at 2:58:42 PM

Latest Report: Oct 1, 2014 at 1:56 PM


Visibility: 10 mi

Pressure: 29.88 "Hg

Humidity: 19%

Dew point: 38 °F

Location of FremontLocation

Historic Weather in Fremont — Graph

°F

Fremont temperature yesterday

Maximum temperature yesterday: 75 °F (at 3:56 PM)
Minimum temperature yesterday: 57 °F (at 5:56 AM)
Average temperature yesterday: 65 °F

Past Weeks' High & Low Weather Summary

 TemperatureHumidityPressure
High83 °F (Sep 17, 5:56 PM)100% (Sep 25, 2:04 AM)30.07 "Hg (Sep 25, 2:04 AM)
Low57 °F (Sep 28, 4:56 AM)21% (Oct 1, 12:56 PM)29.74 "Hg (Sep 17, 5:56 PM)
Average68 °F74%29.93 "Hg
* Reported Sep 16 12:56 PM — Oct 1 12:56 PM, Fremont, Weather by CustomWeather, © 2014

Note: Actual official high and low records may vary slightly from our data, if they occured in-between our weather recording intervals... More about our weather records

Advertising

Fremont weather history for previous 24 hours

 ConditionsComfort  
Time TempWeatherWind HumidityBarometerVisibility
12:56 PM
Oct 1
82 °FSunny.8 mph21%29.90 "Hg10 mi
11:56 AM79 °FSunny.7 mph24%29.92 "Hg10 mi
10:56 AM76 °FSunny.3 mph27%29.93 "Hg10 mi
9:56 AM74 °FSunny.No wind29%29.93 "Hg10 mi
8:56 AM69 °FSunny.No wind51%29.93 "Hg10 mi
7:56 AM60 °FClear.No wind83%29.91 "Hg10 mi
6:56 AM60 °FClear.No wind90%29.90 "Hg10 mi
5:56 AM59 °FClear.No wind84%29.88 "Hg10 mi
4:56 AM58 °FClear.No wind90%29.87 "Hg10 mi
3:56 AM57 °FClear.No wind100%29.87 "Hg10 mi
2:56 AM59 °FClear.No wind90%29.87 "Hg10 mi
1:56 AM60 °FClear.3 mph96%29.87 "Hg10 mi
12:56 AM62 °FClear.No wind83%29.86 "Hg10 mi
11:56 PM
Sep 30
64 °FClear.No wind87%29.86 "Hg10 mi
10:56 PM65 °FClear.No wind85%29.86 "Hg10 mi
9:56 PM66 °FClear.No wind78%29.87 "Hg10 mi
8:56 PM67 °FClear.No wind79%29.87 "Hg10 mi
7:56 PM68 °FClear.6 mph84%29.86 "Hg10 mi
6:56 PM69 °FSunny.10 mph84%29.85 "Hg10 mi
5:56 PM71 °FSunny.9 mph59%29.86 "Hg10 mi
4:56 PM73 °FSunny.10 mph57%29.86 "Hg10 mi
3:56 PM75 °FSunny.12 mph54%29.87 "Hg10 mi
2:56 PM73 °FSunny.10 mph59%29.89 "Hg10 mi
Weather by CustomWeather, © 2014

See weather overviewHow to use our weather pages